Regional Weather Roundup
Issued by NWS

Home | Current Version | Previous Version | Text Only | Print | Product List | Glossary Off
Versions: 1 2 3 4 5 6 7 8 9 10 11 12 13 14 15 16 17 18 19 20 21 22 23 24 25 26 27 28 29 30 31 32 33 34 35 36 37 38 39 40 41 42 43 44 45 46 47 48 49 50

000
ASUS45 KPSR 271110
RWRAZ

ARIZONA HOURLY REGIONAL WEATHER ROUNDUP
NATIONAL WEATHER SERVICE PHOENIX AZ
400 AM MST MON MAR 27 2017

NOTE: FAIR INDICATES FEW OR NO CLOUDS BELOW 12,000 FEET WITH NO
SIGNIFICANT WEATHER AND/OR OBSTRUCTIONS TO VISIBILITY.

AZZ001>003-036-271200-
NORTHWEST ARIZONA

CITY           SKY/WX    TMP DP  RH WIND       PRES   REMARKS
BULLHEAD CITY  CLEAR     63  34  34 SE5       29.81S
KINGMAN        CLEAR     49  25  39 SE3       29.89F
$$

AZZ004>008-015-016-018-271200-
NORTH CENTRAL ARIZONA

CITY           SKY/WX    TMP DP  RH WIND       PRES   REMARKS
GRAND CANYON   CLEAR     27  25  92 CALM      30.00F
WILLIAMS       PTCLDY    30  25  80 S8        30.01F WCI  23
PRESCOTT       PTCLDY    41  30  65 S6        29.98F
FLAGSTAFF      CLEAR     30  24  78 CALM      30.02F
PAYSON         CLEAR     41  28  60 CALM      30.02S
PAGE           CLOUDY    49  32  52 SE3       29.91F
$$

AZZ009>014-017-271200-
NORTHEAST ARIZONA

CITY           SKY/WX    TMP DP  RH WIND       PRES   REMARKS
WINSLOW        CLEAR     39  26  59 SE3       29.98F
SAINT JOHNS    PTCLDY    36  22  56 S6        30.00F WCI  31
WINDOW ROCK    CLEAR     27  22  81 CALM      30.02S
SHOW LOW       CLEAR     37  23  56 S10       30.03S WCI  30
$$

AZZ023-271200-
GREATER PHOENIX AREA

CITY           SKY/WX    TMP DP  RH WIND       PRES   REMARKS
PHOENIX        PTCLDY    61  37  41 E8        29.85F
BUCKEYE        CLEAR     50  34  53 N5        29.87S
LUKE AFB       CLEAR     54  39  57 NW6       29.85F
DEER VALLEY    CLEAR     55  36  48 CALM      29.86F
SCOTTSDALE     CLEAR     58  38  47 CALM      29.88F
MESA-GATEWAY   CLEAR     54  34  47 E6        29.89S
$$

AZZ027-028-271200-
SOUTHWEST MARICOPA COUNTY AND PINAL COUNTY

CITY           SKY/WX    TMP DP  RH WIND       PRES   REMARKS
CASA GRANDE    NOT AVBL
GILA BEND      FAIR      60  31  33 CALM      29.86S
$$

AZZ503-504-507>509-271200-
SOUTHEAST ARIZONA

CITY           SKY/WX    TMP DP  RH WIND       PRES   REMARKS
TUCSON         CLEAR     55  28  35 S6        29.95S
DAVIS-MONTHAN  CLEAR     52  26  35 SE6       29.94S
NOGALES        CLEAR     48  26  42 NE6       29.97F
SIERRA VISTA   CLEAR     50  26  40 S3        30.00F
DOUGLAS        CLEAR     44  21  40 E7        29.99F
SAFFORD        CLEAR     46  25  43 E6        29.94S
$$

AZZ020-021-025-026-031-271200-
SOUTHWEST ARIZONA

CITY           SKY/WX    TMP DP  RH WIND       PRES   REMARKS
YUMA           CLEAR     62  44  51 SW3       29.85F
$$

CAZ031-033-041-043-047-048-061-271200-
SOUTHERN CALIFORNIA

CITY           SKY/WX    TMP DP  RH WIND       PRES   REMARKS
DOWNTOWN L.A.  CLEAR     55  51  86 CALM      30.00F
L.A. AIRPORT   PTCLDY    55  53  93 CALM      30.01F
SAN DIEGO      MOCLDY    60  51  72 W6        30.04S
BURBANK        CLEAR     52  46  80 CALM      29.99F
ONTARIO        MOCLDY    52  50  93 SW3       30.01F
RIVERSIDE      CLOUDY    53  52  96 CALM      30.01F
PALM SPRINGS   PTCLDY    63  49  60 E3        29.85F
EL CENTRO NAS  CLEAR     64  43  46 W14       29.85F
IMPERIAL       CLEAR     62  46  55 NW7       29.83F
BLYTHE         MOCLDY    63  48  58 S7        29.82F
NEEDLES        PTCLDY    66  35  31 CALM      29.81S
$$

NVZ020-UTZ003-271200-
SOUTHERN NEVADA-UTAH

CITY           SKY/WX    TMP DP  RH WIND       PRES   REMARKS
LAS VEGAS      CLEAR     61  37  41 S12G17    29.80F
SALT LAKE CITY CLOUDY    48  37  65 E6        29.87F
$$

NMZ009-TXZ055-271200-
NEW MEXICO-WEST TEXAS

CITY           SKY/WX    TMP DP  RH WIND       PRES   REMARKS
ALBUQUERQUE    PTCLDY    42  24  49 E7        30.00F
EL PASO        CLEAR     58  19  22 S12       29.96S
$$


........................KEY........................
SKY/WX - SKY CONDITION/WEATHER
TMP    - TEMPERATURE IN FAHRENHEIT
DP     - DEW POINT IN FAHRENHEIT
RH     - RELATIVE HUMIDITY IN PERCENT
WIND   - DIRECTION AND SPEED IN MILES PER HOUR (MPH)
VRB    - VARIABLE WIND DIRECTION
PRES   - MEAN SEA LEVEL PRESSURE IN INCHES OF MERCURY
         F - FALLING PRESSURE   R - RISING PRESSURE
         S - STEADY PRESSURE
VSB    - VISIBILITY IN MILES
HX     - HEAT INDEX IN FAHRENHEIT
WCI    - WIND CHILL INDEX IN FAHRENHEIT
TC     - TEMPERATURE IN CELSIUS WHICH IS ALSO KNOWN AS
         TEMPERATURE IN CENTIGRADE
AFB    - AIR FORCE BASE
         LUKE AFB IS LUKE AIR FORCE BASE
         DAVIS-MONTHAN IS DAVIS-MONTHAN AIR FORCE BASE
NAS    - NAVAL AIR STATION
         EL CENTRO NAS IS EL CENTRO NAVAL AIR STATION
N/A    - NOT AVAILABLE




USA.gov is the U.S. government's official web portal to all federal, state and local government web resources and services.